Wind_Speed
58 60 62 63 65 65 66 65 65 63 65 69 70 67 63 69 68 66 65 65 67 68 66 62 61 59 58 57 56 54 53 53 55 49 46 43 43 44 45 44 40 40 40
51 54 56 59 60 61 66 69 64 65 67 73 67 67 66 65 66 68 69 70 71 70 72 74 68 65 62 58 56 54 54 54 56 56 47 45 46 46 46 46 43 41 42
58 62 66 68 69 70 75 73 72 73 72 73 75 72 71 73 75 74 74 73 74 76 75 75 74 66 60 59 55 54 52 53 54 55 48 45 46 48 49 45 41 44 45
62 64 66 67 69 71 73 75 75 74 77 76 76 77 76 77 78 77 75 76 75 75 73 70 66 65 58 55 55 52 51 52 52 53 51 45 47 48 46 45 43 44 44
56 56 57 58 60 65 69 71 72 74 76 80 82 82 83 80 77 73 69 64 61 61 62 61 61 59 60 57 55 53 51 50 49 49 49 48 45 46 44 45 44 43 41
42 45 49 52 51 53 55 58 63 67 69 72 73 71 67 65 62 60 57 54 54 55 57 60 60 60 62 65 56 58 56 53 50 46 44 47 46 47 46 47 44 39 41
48 52 52 56 58 60 61 61 62 64 64 65 64 62 59 57 55 54 56 60 59 57 62 66 65 64 63 66 62 61 58 54 51 47 43 46 51 47 47 46 45 42 40
49 52 53 52 51 53 56 59 59 60 60 60 59 57 57 58 59 58 57 51 51 49 51 53 56 60 61 60 59 58 55 52 48 46 42 47 51 49 47 46 42 35 36
48 44 44 48 51 52 53 55 56 57 58 58 59 58 58 55 52 50 52 54 51 49 47 47 46 44 45 52 53 56 52 47 45 43 42 46 45 44 44 44 46 38 46
39 43 45 48 48 46 44 44 45 48 51 54 56 56 55 53 54 56 55 59 49 49 45 38 35 37 41 45 45 46 43 42 43 42 42 43 42 40 38 42 44 38 44
39 40 38 36 38 42 46 49 51 49 50 50 52 53 55 55 55 52 49 49 45 44 34 31 32 35 35 35 33 35 34 38 44 42 39 38 38 39 40 36 42 36 39
34 32 34 38 42 45 49 49 46 48 52 53 50 47 48 51 52 53 54 48 44 37 29 32 31 32 31 29 28 30 34 37 41 42 39 38 34 39 40 37 42 38 38
29 34 37 39 44 48 46 47 50 50 50 49 51 51 46 44 40 44 42 38 43 31 28 31 30 28 27 25 26 29 29 33 39 50 34 36 36 39 37 36 40 44 30
32 34 37 42 42 45 46 48 47 49 46 39 39 36 34 32 30 31 33 29 27 26 28 28 25 24 23 24 27 27 30 36 33 41 38 39 38 32 31 29 21 20 22
32 35 42 41 42 44 46 48 47 48 46 40 37 34 35 29 28 28 28 32 26 26 26 20 20 23 24 25 22 21 26 33 35 37 46 39 32 31 23 19 22 20 20
32 38 40 43 45 44 45 47 48 46 42 38 33 33 31 25 23 21 24 19 25 26 22 15 21 25 25 24 24 24 27 34 36 43 43 37 33 24 26 24 20 19 21
34 34 39 45 46 45 44 47 46 43 39 35 32 27 24 20 22 19 22 27 30 26 23 20 24 24 23 20 23 23 23 33 48 49 43 38 31 27 25 23 23 24 20
33 34 40 47 46 43 47 44 40 41 35 30 24 21 20 18 20 20 15 28 28 27 29 27 29 26 23 16 13 25 36 50 45 48 34 33 29 26 24 24 23 18 14
33 36 43 46 46 46 43 41 40 37 34 29 25 21 18 17 23 22 23 27 28 30 32 33 31 29 29 25 20 33 35 38 35 35 35 30 26 25 25 23 20 18 16
33 39 47 46 47 44 41 39 37 38 34 24 17 15 16 16 24 27 25 30 31 32 34 34 33 32 33 33 20 28 32 32 35 33 32 29 27 25 24 22 21 21 18
34 41 47 44 46 41 38 35 37 35 28 19 11 4 12 17 22 28 30 33 34 34 35 32 33 36 36 31 41 32 33 32 34 32 32 29 29 28 24 22 21 22 17
34 39 48 42 42 41 37 33 32 33 28 18 11 5 11 15 23 26 25 35 35 34 34 30 31 36 34 32 37 40 36 35 32 34 34 32 30 26 22 19 18 18 16
32 39 41 42 42 41 35 31 29 28 26 20 11 9 11 13 22 26 25 33 33 33 33 29 31 35 32 40 38 39 38 36 32 34 34 34 30 26 22 19 17 15 14
29 35 40 38 42 40 38 32 30 23 23 20 15 13 12 18 24 26 26 28 29 31 31 29 32 32 37 35 38 37 34 34 33 35 35 31 30 27 23 20 15 12 9
27 31 36 40 40 39 39 36 31 27 18 17 13 11 12 15 20 18 19 22 29 29 28 27 31 37 37 44 37 35 33 31 28 28 29 28 27 24 23 20 17 13 13
26 27 33 36 42 38 35 38 33 31 23 18 14 9 9 11 16 15 11 14 28 29 27 27 33 36 39 39 38 35 34 31 30 29 29 27 27 27 22 19 19 17 15
Wind_Direction
254 255 259 263 262 265 267 269 268 271 273 275 274 273 273 277 279 280 283 283 285 288 285 281 283 284 284 283 279 277 275 272 270 267 263 259 259 262 264 265 267 267 268
262 262 264 266 267 265 269 269 269 267 271 273 279 277 273 272 276 280 281 281 283 284 285 285 284 283 281 278 277 274 272 271 271 270 263 258 254 256 258 262 264 263 264
266 266 268 268 269 270 270 272 273 275 272 274 274 273 275 278 279 280 280 280 280 281 281 281 281 279 276 275 272 271 270 270 270 270 265 254 251 248 255 257 256 258 263
271 269 269 269 268 268 269 270 270 269 269 272 274 275 276 278 278 277 276 276 277 276 274 274 274 275 272 270 270 269 268 267 265 263 263 252 247 247 248 251 251 250 254
277 279 278 277 275 273 272 271 272 274 274 275 275 276 276 278 278 279 278 273 270 269 269 268 268 270 274 273 272 270 270 268 265 261 256 252 243 242 241 242 242 241 246
283 283 282 280 277 280 280 278 274 276 276 276 277 277 279 278 276 276 275 274 273 271 268 266 265 267 269 273 270 271 270 267 263 260 253 248 240 236 236 233 233 231 234
280 284 283 281 282 283 283 282 281 280 279 279 279 278 279 278 277 278 279 280 280 275 270 263 261 262 264 268 269 268 268 264 258 257 246 240 236 232 232 227 228 229 230
284 284 285 286 286 284 283 283 284 283 283 282 281 279 277 277 278 278 279 277 284 281 274 265 262 259 257 262 264 264 262 258 256 245 235 235 231 229 228 230 227 224 232
284 286 288 288 286 285 286 286 284 283 283 283 282 280 278 276 274 273 273 274 281 284 283 269 260 262 259 260 260 258 253 246 240 232 228 229 224 228 225 228 224 230 237
291 293 292 288 290 295 293 291 291 290 288 286 284 282 278 275 276 279 276 276 276 282 273 264 261 262 263 264 262 249 237 228 222 220 221 219 223 221 220 223 219 243 240
291 291 293 296 296 295 296 294 293 291 290 290 286 283 280 278 275 275 274 276 269 275 259 260 259 260 263 266 252 233 216 219 216 214 210 217 222 216 214 225 223 236 236
295 294 298 300 303 302 301 301 300 296 296 295 294 288 283 277 273 273 271 262 263 261 256 256 256 260 258 246 238 220 215 219 215 203 206 201 214 215 216 229 226 232 237
298 301 302 303 303 305 306 304 304 305 301 297 293 289 281 276 270 257 269 256 250 247 251 251 254 258 250 237 229 221 215 210 212 199 201 206 212 218 220 225 235 229 229
302 306 310 312 309 306 307 308 308 306 306 303 299 292 287 283 273 268 253 237 243 234 240 244 248 241 229 224 220 214 207 207 206 205 179 205 210 212 221 218 198 202 211
314 315 319 318 313 311 310 311 308 305 305 299 293 291 289 284 277 265 247 241 233 225 231 237 233 222 210 204 219 214 202 202 200 197 186 195 206 211 202 198 205 203 211
319 322 328 324 319 315 315 317 314 309 304 301 299 292 289 276 264 251 247 234 209 215 216 219 206 197 195 207 216 192 190 199 192 196 191 194 195 190 196 198 199 203 212
325 329 334 337 327 322 320 320 319 314 309 300 296 287 284 268 247 242 227 234 201 202 195 195 183 182 191 212 210 217 220 205 193 190 198 194 181 189 193 196 197 195 196
335 333 338 339 336 329 326 326 323 320 313 305 295 284 277 251 223 225 228 187 191 190 183 183 185 186 184 172 203 199 180 176 179 185 186 185 185 187 186 188 191 178 178
339 342 343 345 341 337 336 333 332 328 321 307 289 275 265 237 210 199 192 194 185 187 185 184 192 193 186 185 169 182 178 170 159 168 174 179 184 183 187 190 184 172 179
344 345 349 350 345 343 342 342 341 337 332 323 303 267 241 225 203 198 190 188 185 187 185 185 190 194 192 190 176 180 182 175 171 174 172 181 185 186 191 190 186 189 186
347 350 352 349 348 348 349 349 350 351 351 351 340 275 197 193 192 188 185 184 186 189 186 188 192 192 194 193 184 191 184 179 178 180 181 180 187 192 194 197 197 195 190
349 352 353 357 354 354 354 355 359 2 7 11 23 108 155 170 177 174 180 184 187 188 185 189 192 191 188 191 187 184 186 186 186 182 181 185 188 191 195 196 201 208 204
352 352 1 1 360 2 4 6 5 10 18 26 42 111 132 152 164 175 183 183 185 187 184 189 185 185 186 184 177 182 183 186 189 189 188 191 187 193 199 203 210 220 220
354 359 5 7 7 9 9 10 12 13 21 34 59 91 109 145 157 166 170 177 183 184 183 183 179 184 177 173 172 177 180 186 191 193 193 193 195 199 205 213 219 222 247
5 7 12 13 12 13 16 19 20 23 30 37 59 85 114 150 167 166 176 184 186 182 182 178 179 172 172 179 178 183 188 188 190 193 196 201 205 209 210 211 220 239 250
12 17 20 18 20 18 22 24 29 32 34 45 54 93 117 115 139 148 149 162 177 179 177 180 175 174 181 179 181 189 194 195 196 197 198 202 206 208 209 210 224 240 252
Height
5715 5713 5712 5712 5711 5710 5709 5708 5706 5705 5703 5702 5701 5700 5699 5698 5697 5695 5694 5694 5692 5688 5688 5693 5694 5694 5694 5695 5696 5698 5700 5702 5704 5712 5715 5719 5722 5724 5726 5730 5734 5735 5737
5703 5702 5700 5698 5696 5694 5692 5690 5689 5688 5685 5684 5681 5680 5679 5680 5679 5679 5678 5677 5675 5675 5673 5670 5674 5676 5676 5678 5678 5680 5682 5685 5687 5691 5699 5703 5707 5709 5713 5717 5722 5723 5726
5690 5688 5685 5682 5679 5677 5675 5673 5669 5667 5666 5663 5662 5662 5661 5661 5660 5660 5659 5658 5657 5656 5655 5653 5652 5655 5658 5658 5661 5662 5665 5667 5670 5673 5682 5686 5690 5694 5699 5703 5709 5710 5712
5672 5669 5667 5664 5661 5659 5657 5654 5651 5649 5647 5645 5644 5642 5641 5640 5640 5640 5639 5638 5637 5635 5634 5633 5633 5632 5637 5640 5642 5646 5648 5651 5654 5657 5662 5669 5673 5677 5683 5688 5694 5697 5699
5653 5651 5648 5644 5641 5639 5637 5635 5633 5630 5627 5624 5622 5621 5619 5618 5617 5616 5615 5614 5614 5614 5614 5614 5615 5615 5615 5619 5625 5627 5630 5634 5638 5642 5646 5650 5656 5661 5667 5672 5678 5683 5686
5638 5635 5632 5628 5625 5623 5620 5617 5614 5611 5607 5602 5599 5597 5597 5595 5593 5594 5594 5594 5595 5595 5596 5595 5596 5598 5599 5598 5605 5608 5613 5617 5622 5626 5632 5637 5641 5645 5651 5657 5663 5669 5673
5626 5623 5618 5614 5611 5607 5603 5598 5594 5591 5586 5583 5580 5578 5576 5575 5574 5575 5574 5574 5573 5572 5572 5574 5577 5579 5580 5580 5585 5588 5592 5599 5604 5611 5617 5622 5627 5634 5639 5644 5649 5654 5659
5613 5609 5605 5600 5596 5591 5587 5582 5578 5574 5570 5566 5563 5560 5559 5558 5556 5555 5555 5554 5553 5553 5551 5551 5554 5556 5559 5560 5563 5567 5572 5579 5587 5594 5602 5607 5616 5620 5627 5633 5638 5643 5648
5599 5597 5593 5587 5581 5576 5572 5567 5562 5556 5553 5549 5545 5543 5541 5539 5538 5539 5538 5536 5536 5536 5535 5534 5536 5539 5540 5540 5543 5547 5553 5562 5570 5580 5588 5595 5603 5609 5616 5623 5629 5632 5640
5589 5585 5580 5573 5568 5563 5557 5552 5546 5541 5536 5532 5529 5526 5524 5523 5522 5521 5520 5520 5522 5522 5519 5520 5522 5523 5523 5522 5523 5528 5537 5548 5556 5565 5576 5585 5594 5600 5607 5613 5619 5624 5630
5578 5573 5567 5562 5556 5550 5544 5537 5532 5526 5520 5515 5511 5507 5504 5503 5503 5503 5503 5504 5507 5507 5508 5509 5509 5510 5508 5509 5511 5517 5527 5536 5545 5554 5565 5576 5583 5591 5599 5606 5612 5617 5622
5566 5561 5557 5552 5545 5538 5531 5524 5517 5510 5505 5499 5494 5491 5488 5486 5486 5486 5487 5490 5493 5495 5496 5497 5497 5498 5499 5502 5506 5512 5519 5527 5536 5546 5554 5567 5578 5586 5591 5596 5603 5609 5615
5557 5552 5547 5541 5533 5525 5518 5511 5503 5495 5488 5482 5476 5472 5469 5467 5466 5469 5470 5473 5477 5483 5485 5487 5488 5490 5492 5495 5501 5507 5514 5521 5529 5539 5547 5561 5571 5578 5584 5590 5595 5602 5606
5549 5543 5537 5530 5522 5513 5506 5497 5489 5480 5473 5467 5460 5456 5454 5452 5452 5453 5457 5461 5465 5471 5475 5478 5480 5483 5487 5490 5496 5503 5510 5517 5526 5534 5547 5557 5566 5574 5580 5585 5589 5597 5604
5540 5534 5527 5519 5510 5502 5493 5483 5475 5466 5460 5453 5448 5445 5443 5442 5441 5441 5443 5450 5456 5462 5467 5470 5474 5479 5483 5489 5495 5501 5509 5515 5522 5530 5540 5551 5562 5568 5575 5582 5589 5594 5601
5533 5526 5518 5509 5499 5490 5481 5471 5460 5453 5445 5439 5435 5432 5431 5431 5431 5432 5437 5440 5448 5455 5461 5465 5470 5475 5483 5489 5494 5500 5507 5512 5519 5528 5538 5550 5557 5566 5574 5580 5585 5592 5596
5526 5519 5510 5500 5489 5479 5469 5459 5449 5438 5432 5426 5422 5420 5420 5421 5422 5426 5430 5434 5442 5451 5456 5463 5468 5475 5482 5488 5493 5496 5499 5506 5515 5528 5538 5544 5554 5565 5573 5578 5584 5589 5594
5519 5511 5503 5491 5479 5468 5457 5446 5436 5428 5420 5414 5411 5410 5411 5412 5416 5421 5425 5430 5439 5446 5453 5460 5467 5474 5480 5487 5490 5494 5499 5505 5515 5526 5535 5545 5556 5564 5571 5576 5581 5586 5590
5514 5506 5496 5483 5471 5459 5448 5437 5426 5418 5410 5404 5400 5400 5402 5405 5410 5416 5422 5428 5436 5443 5450 5458 5465 5472 5479 5485 5493 5498 5503 5509 5516 5528 5536 5547 5556 5562 5569 5575 5579 5584 5590
5508 5500 5489 5477 5465 5453 5442 5431 5421 5410 5400 5392 5388 5389 5393 5398 5404 5412 5418 5426 5434 5441 5449 5457 5464 5471 5479 5486 5494 5500 5505 5511 5517 5527 5537 5547 5554 5562 5569 5574 5578 5584 5589
5506 5496 5485 5473 5462 5449 5438 5428 5419 5407 5397 5389 5385 5384 5387 5393 5400 5408 5416 5423 5431 5438 5447 5455 5461 5468 5476 5485 5493 5501 5507 5513 5520 5529 5539 5545 5553 5561 5566 5573 5578 5582 5586
5502 5493 5483 5472 5459 5448 5437 5427 5419 5409 5399 5393 5389 5388 5390 5396 5401 5409 5416 5422 5429 5437 5445 5453 5459 5467 5475 5483 5492 5500 5508 5516 5522 5529 5537 5545 5552 5559 5566 5572 5576 5581 5585
5500 5491 5482 5471 5459 5447 5437 5428 5420 5413 5405 5399 5395 5395 5397 5400 5404 5410 5416 5423 5431 5437 5445 5451 5458 5466 5474 5482 5489 5499 5507 5515 5522 5529 5537 5544 5551 5557 5564 5570 5575 5579 5583
5499 5491 5482 5472 5461 5450 5440 5431 5423 5417 5413 5407 5404 5403 5404 5405 5408 5413 5420 5426 5432 5438 5446 5451 5457 5465 5473 5482 5491 5500 5508 5515 5521 5528 5536 5542 5550 5557 5562 5567 5573 5577 5579
5497 5491 5483 5474 5464 5454 5445 5435 5428 5421 5418 5415 5412 5411 5411 5412 5416 5421 5425 5429 5434 5441 5448 5453 5460 5467 5475 5484 5492 5500 5508 5514 5521 5528 5535 5542 5549 5554 5560 5566 5570 5573 5575
5497 5491 5485 5477 5469 5460 5451 5443 5435 5429 5424 5421 5418 5418 5418 5420 5423 5426 5429 5432 5437 5444 5451 5457 5463 5470 5478 5485 5493 5501 5508 5515 5522 5528 5535 5540 5546 5552 5557 5562 5566 5570 5572